METEOR 1-17 DEB, 57542

Orbit data source: Space-Track

METEOR 1-17 DEB, 57542 is space debris in LEO originally from a Commonwealth of Independent States-origin launch on Wed, 24 Apr 1974 UTC launched from the Plesetsk Missile And Space Complex (PKMTR). Debris objects in space refer to the collection of defunct objects orbiting the Earth. Examples of debris include non-operational satellites, rocket bodies, and fragments generated from explosions, collisions, or faulty payload assembly.

Loading next visibility...
Identifier
57542, 1974-025H
Orbit
LEO
Country
Flag of CISCIS
Related business
Manufacturer
VNIIEM
Mission
Spacecraft
Bus & Motor
Unknown
Mass
Unknown
Launch date (UTC)
1974-04-24 (52 years ago)
Launch vehicle
Unknown
Launch site
Plesetsk Missile And Space Complex (PKMTR)
Object type
Payload
Rocket body
Debris
Shape & HBR
Unknown shape, 0.1 m
Radar Cross Section
Small (<0.1 m²)

Expand to show TLE details & history
Last TLE update: 2 days ago

TLE from 2 days ago
0 METEOR 1-17 DEB
1 57542U 74025H   26171.28204194  .00003192  00000-0  14481-2 0  9993
2 57542  81.2069 282.5261 0003763 349.3348  10.7749 14.21696987158027
Epoch: 2026-06-20T06:46Z
TLE epoch observation values (Epoch: 2026-06-20T06:46:08.423Z)
Latitude
Longitude
-87.5079°
Altitude
819.872 km
Speed
7.445 km/s
True Right ascension
18h 50m 06s
True Declination
0° 00' 00"
Sunlit
Object was in full shadow at epoch
Visualization orbit readout
Latitude
Unknown
Longitude
Unknown
Altitude
Unknown
Speed
Unknown
Apparent Right ascension
Unknown
Apparent Declination
Unknown
Sunlit
N/A
Visualization observer readout
Local Sidereal Time
00:51:22
Azimuth
Unknown
Elevation
Unknown
Doppler factor
Unknown
Orbital elements
Apogee altitude
819.487 km
Perigee altitude
814.072 km
Semi-major axis
7,194.917 km
Eccentricity
0.00038
Inclination
81.2069°
RAAN
282.5261°
Arg. of periapsis
349.3348°
True anomaly
10.78297°
Mean anomaly
10.7749°
Eccentric anomaly
10.77893°
Mean motion
3.55635 °/min
Orbital period
101.23 mins
BSTAR
0.0014481
Loading maneuver chart data...
Computing Atmospheric mass density...
Loading historical data...
Loading historical data...
Loading historical data...
Loading historical data...
Loading historical data...
Loading historical data...
Loading historical data...

Documentation

Showing up to 5 results
|